OKEAN-3 (21397 NORAD) Tracking and Keplerian Element Data

This shows tracking and keplerian element data for the satellite.

Feedback or suggestion? Click here.




ElementValue
Catalog21397
NameOKEAN-3
Epoch Orbit65950
Epoch Day16.00617194
Epoch Year2022
RAAN347.5814
Inclination82.5224
Eccentricity0.0018817
Argument of Perigee40.4787
Mean Anonmoly319.7829
Mean Motion14.93289582
Decay Rate9.67E-06
L11 21397U 91039A 22016.00617194 .00000967 00000+0 89592-4 0 9991
L22 21397 82.5224 347.5814 0018817 40.4787 319.7829 14.93289582659509

Live tracking and technical data element details for OKEAN-3 (NORAD 21397). OKEAN-3 can be tracked NOW for your location showing map with azimuth and elevation plus other details from your city location.

Track the satellite on the map from your city or location and see movement details for azimuth, elevation, latitude, longitude, range, height, and movement on the map or in text.







IsCatalogInMostPopularTable: catalog: 21397, numindb: 271
Update: records affected: 1



GetName: 21397 OKEAN-3

Hit Count: updated at: Mon, 17 Jan 2022 01:30:18 GMT